Tracking 20092 objects as of 14-Dec-2019
HD Live streaming from Space Station
objects crossing your sky now

COSMOS 1375 DEB

Track COSMOS 1375 DEB now!
10-day predictions


NORAD ID: 16203
Int'l Code: 1982-055E
Perigee: 896.9 km
Apogee: 982.0 km
Inclination: 65.8 °
Period: 103.7 minutes
Semi major axis: 7310 km
RCS: 0.1211 m2 (medium)
Launch date: June 6, 1982
Source: Commonwealth of Independent States (former USSR) (CIS)
Launch site: PLESETSK MISSILE AND SPACE COMPLEX (PKMTR)

Note: This is SATELLITE DEBRIS
aabbcc
Your satellite tracking list
Your tracking list is empty




NASA's NSSDC Master Catalog

Two Line Element Set (TLE):
1 16203U 82055E   19346.94355174 -.00000088  00000-0 -34119-5 0  9994
2 16203  65.8333 151.2232 0058225 116.3582  45.3475 13.88949937900666
Source of the keplerian elements: AFSPC